Regional Weather Roundup
Issued by NWS

Home | Current Version | Previous Version | Graphics & Text | Print | Product List | Glossary On
Versions: 1 2 3 4 5 6 7 8 9 10 11 12 13 14 15 16 17 18 19 20 21 22 23 24 25 26 27 28 29 30 31 32 33 34 35 36 37 38 39 40 41 42 43 44 45 46 47 48 49 50
000
ASUS43 KIND 011209
RWRIN

WEATHER ROUNDUP FOR INDIANA
NATIONAL WEATHER SERVICE INDIANAPOLIS IN
800 AM EDT WED APR 01 2015

NOTE: "FAIR" INDICATES FEW OR NO CLOUDS BELOW 12,000 FEET WITH NO
SIGNIFICANT WEATHER AND/OR OBSTRUCTIONS TO VISIBILITY.

* - STATION DOES NOT REPORT WEATHER SUCH AS PRECIPITATION OR FOG.

+ - STATION NOT QUALITY CONTROLLED BY THE NATIONAL WEATHER SERVICE.
    USE DATA WITH CAUTION...ESPECIALLY DEWPOINT AND RELATIVE
    HUMIDITY OBSERVATIONS.

INZ001>003-010>013-019-020-011300-
NORTHWEST INDIANA

CITY           SKY/WX    TMP DP  RH WIND       PRES   REMARKS
GARY /AIRPORT/ CLEAR     43  32  65 SW8       30.03R
KNOX *+        CLEAR     34  25  69 CALM      30.03R
LA PORTE +     CLEAR     34  30  85 CALM      30.04R
6HR MIN TEMP:  34; 6HR MAX TEMP:  39;

MICHIGAN CITY+ CLEAR     34  28  80 CALM      30.05R
MONTICELLO +   CLEAR     36  32  85 S5        30.05R
6HR MIN TEMP:  35; 6HR MAX TEMP:  39;

RENSSELAER +   CLEAR     37  36  93 S6        30.05R
VALPARAISO     CLEAR     35  31  85 S5        30.05R WCI  31
6HR MIN TEMP:  35; 6HR MAX TEMP:  39;


$$

LMZ046-743>745-011300-
SOUTHERN LAKE MICHIGAN

STATION/POSITION TIME  TEMP WIND        PRES
                       AIR  DIR/SP/G
                 (UTC) (F)  (DEG/KT/KT) (MB)
BURNS HARBOR     1200   42  280/  7/ 11 1017.6R
MICHIGAN CITY    1200   38   40/  7/  9   N/A

$$

INZ004-005-014>016-021>024-011300-
NORTH CENTRAL INDIANA

CITY           SKY/WX    TMP DP  RH WIND       PRES   REMARKS
ELKHART        CLEAR     32  30  93 CALM      30.06R
GOSHEN         CLEAR     36  30  79 S3        30.04R
6HR MIN TEMP:  32; 6HR MAX TEMP:  38;

LOGANSPORT +   CLEAR     32  32 100 S5        30.06R WCI  27
PERU/GRISSOM   CLEAR     35  31  85 S7        30.04R WCI  29
6HR MIN TEMP:  33; 6HR MAX TEMP:  38;

ROCHESTER +    CLEAR     41  36  81 CALM      30.05R
SOUTH BEND     CLEAR     31  27  85 NW5       30.05R WCI  26
6HR MIN TEMP:  31; 6HR MAX TEMP:  40;

WARSAW +       CLEAR     32  32 100 CALM      30.04R

$$

INZ006>009-017-018-025>027-011300-
NORTHEAST INDIANA

CITY           SKY/WX    TMP DP  RH WIND       PRES   REMARKS
ANGOLA *+      CLEAR     30  30 100 CALM      30.04R
AUBURN +       CLEAR     34  32  93 SW3       30.06R FOG
FORT WAYNE     CLEAR     32  30  92 SW5       30.07R WCI  27
6HR MIN TEMP:  32; 6HR MAX TEMP:  35;

HUNTINGTON +   CLEAR     35  30  84 SW3       30.06R
6HR MIN TEMP:  32; 6HR MAX TEMP:  37;


$$

INZ028-029-035-036-043>045-051>053-011300-
WEST CENTRAL INDIANA

CITY           SKY/WX    TMP DP  RH WIND       PRES   REMARKS
CRAWFORDSVL +  CLEAR     35  28  77 S5        30.06S WCI  31
6HR MIN TEMP:  34; 6HR MAX TEMP:  37;

GREENCASTLE +  CLEAR     37  30  75 S5        30.08R
LAFAYETTE      CLEAR     38  32  79 CALM      30.06R
6HR MIN TEMP:  36; 6HR MAX TEMP:  41;

TERRE HAUTE    CLEAR     40  33  76 S7        30.08R
6HR MIN TEMP:  37; 6HR MAX TEMP:  43;


$$

INZ030>032-037>040-046>048-054>057-064-065-011300-
CENTRAL INDIANA

CITY           SKY/WX    TMP DP  RH WIND       PRES   REMARKS
CP ATTERBURY + CLEAR     37  34  87 S5        30.10R
COLUMBUS       CLEAR     32  28  86 S3        30.11R
FISHERS *+     CLEAR     36  36 100 CALM      30.09R
FRANKFORT +    CLEAR     37  33  85 SE6       30.07R
6HR MIN TEMP:  33; 6HR MAX TEMP:  37;

GREENWOOD *+   MOCLDY    37  32  81 S6        30.09R
INDIANAPOLIS   CLEAR     38  32  79 S5        30.06R
6HR MIN TEMP:  37; 6HR MAX TEMP:  43;

-EAGLE CREEK   CLEAR     36  33  89 CALM      30.07R
6HR MIN TEMP:  35; 6HR MAX TEMP:  39;

KOKOMO *+        N/A     36  30  80 S9        30.06R
6HR MIN TEMP:  34; 6HR MAX TEMP:  37;

MARION +       CLEAR     35  32  90 S8        30.08R WCI  28
MT COMFORT *+  CLEAR     37  37 100 S6        30.09R
SHELBYVILLE    CLEAR     38  34  85 S7        30.09R FOG
6HR MIN TEMP:  34; 6HR MAX TEMP:  39;

ZIONSVILLE +   CLEAR     38  32  79 S6        30.08R
6HR MIN TEMP:  32; 6HR MAX TEMP:  38;


$$

INZ033-034-041-042-049-050-058-059-011300-
EAST CENTRAL INDIANA

CITY           SKY/WX    TMP DP  RH WIND       PRES   REMARKS
MUNCIE         CLEAR     38  33  82 S9        30.07R HAZE
6HR MIN TEMP:  37; 6HR MAX TEMP:  39;


$$

INZ060-061-067>069-081>083-085>088-011300-
SOUTHWEST INDIANA

CITY           SKY/WX    TMP DP  RH WIND       PRES   REMARKS
EVANSVILLE     CLEAR     43  36  76 CALM      30.11R
6HR MIN TEMP:  41; 6HR MAX TEMP:  49;

HUNTINGBURG *+ CLEAR     43  34  70 CALM      30.12R
6HR MIN TEMP:  43; 6HR MAX TEMP:  52;

WASHINGTON +   FAIR      40  35  81 S6        30.11R
6HR MIN TEMP:  37; 6HR MAX TEMP:  44;


$$

INZ062-063-066-070>080-084-089>092-011300-
SOUTH CENTRAL AND SOUTHEAST INDIANA

CITY           SKY/WX    TMP DP  RH WIND       PRES   REMARKS
BEDFORD +      CLEAR     41  34  75 SE6       30.10R
BLOOMINGTON    CLEAR     41  35  79 SE7       30.08R
6HR MIN TEMP:  36; 6HR MAX TEMP:  42;

MADISON *+     CLEAR     37  34  87 CALM      30.12R
NORTH VERNON + CLEAR     37  37 100 S3        30.10R FOG
SEYMOUR +      CLEAR     37  36  93 S3        30.11R

$$




USA.gov is the U.S. government's official web portal to all federal, state and local government web resources and services.